Index of /20260505/WXO-DD/model_gdps/15km/00/147
Name Last modified Size Description
Parent Directory -
20260505T00Z_MSC_GDPS_AirTemp_AGL-120m_LatLon0.15_PT147H.grib2 2026-05-05 04:27 903K
20260505T00Z_MSC_GDPS_AirTemp_AGL-2m_LatLon0.15_PT147H.grib2 2026-05-05 04:27 1.0M
20260505T00Z_MSC_GDPS_AirTemp_AGL-40m_LatLon0.15_PT147H.grib2 2026-05-05 04:27 805K
20260505T00Z_MSC_GDPS_AirTemp_AGL-80m_LatLon0.15_PT147H.grib2 2026-05-05 04:27 911K
20260505T00Z_MSC_GDPS_AirTemp_IsbL-0001_LatLon0.15_PT147H.grib2 2026-05-05 04:27 665K
20260505T00Z_MSC_GDPS_AirTemp_IsbL-0005_LatLon0.15_PT147H.grib2 2026-05-05 04:27 693K
20260505T00Z_MSC_GDPS_AirTemp_IsbL-0010_LatLon0.15_PT147H.grib2 2026-05-05 04:27 692K
20260505T00Z_MSC_GDPS_AirTemp_IsbL-0020_LatLon0.15_PT147H.grib2 2026-05-05 04:27 785K
20260505T00Z_MSC_GDPS_AirTemp_IsbL-0030_LatLon0.15_PT147H.grib2 2026-05-05 04:27 835K
20260505T00Z_MSC_GDPS_AirTemp_IsbL-0050_LatLon0.15_PT147H.grib2 2026-05-05 04:27 881K
20260505T00Z_MSC_GDPS_AirTemp_IsbL-0100_LatLon0.15_PT147H.grib2 2026-05-05 04:27 966K
20260505T00Z_MSC_GDPS_AirTemp_IsbL-0150_LatLon0.15_PT147H.grib2 2026-05-05 04:27 1.0M
20260505T00Z_MSC_GDPS_AirTemp_IsbL-0175_LatLon0.15_PT147H.grib2 2026-05-05 04:27 964K
20260505T00Z_MSC_GDPS_AirTemp_IsbL-0200_LatLon0.15_PT147H.grib2 2026-05-05 04:27 969K
20260505T00Z_MSC_GDPS_AirTemp_IsbL-0225_LatLon0.15_PT147H.grib2 2026-05-05 04:27 964K
20260505T00Z_MSC_GDPS_AirTemp_IsbL-0250_LatLon0.15_PT147H.grib2 2026-05-05 04:27 1.0M
20260505T00Z_MSC_GDPS_AirTemp_IsbL-0275_LatLon0.15_PT147H.grib2 2026-05-05 04:27 1.0M
20260505T00Z_MSC_GDPS_AirTemp_IsbL-0300_LatLon0.15_PT147H.grib2 2026-05-05 04:27 1.0M
20260505T00Z_MSC_GDPS_AirTemp_IsbL-0350_LatLon0.15_PT147H.grib2 2026-05-05 04:27 931K
20260505T00Z_MSC_GDPS_AirTemp_IsbL-0400_LatLon0.15_PT147H.grib2 2026-05-05 04:27 944K
20260505T00Z_MSC_GDPS_AirTemp_IsbL-0450_LatLon0.15_PT147H.grib2 2026-05-05 04:27 966K
20260505T00Z_MSC_GDPS_AirTemp_IsbL-0500_LatLon0.15_PT147H.grib2 2026-05-05 04:27 1.0M
20260505T00Z_MSC_GDPS_AirTemp_IsbL-0550_LatLon0.15_PT147H.grib2 2026-05-05 04:27 1.0M
20260505T00Z_MSC_GDPS_AirTemp_IsbL-0600_LatLon0.15_PT147H.grib2 2026-05-05 04:27 892K
20260505T00Z_MSC_GDPS_AirTemp_IsbL-0650_LatLon0.15_PT147H.grib2 2026-05-05 04:27 917K
20260505T00Z_MSC_GDPS_AirTemp_IsbL-0700_LatLon0.15_PT147H.grib2 2026-05-05 04:27 948K
20260505T00Z_MSC_GDPS_AirTemp_IsbL-0750_LatLon0.15_PT147H.grib2 2026-05-05 04:27 1.0M
20260505T00Z_MSC_GDPS_AirTemp_IsbL-0800_LatLon0.15_PT147H.grib2 2026-05-05 04:27 1.1M
20260505T00Z_MSC_GDPS_AirTemp_IsbL-0850_LatLon0.15_PT147H.grib2 2026-05-05 04:27 1.1M
20260505T00Z_MSC_GDPS_AirTemp_IsbL-0875_LatLon0.15_PT147H.grib2 2026-05-05 04:27 1.1M
20260505T00Z_MSC_GDPS_AirTemp_IsbL-0900_LatLon0.15_PT147H.grib2 2026-05-05 04:27 1.1M
20260505T00Z_MSC_GDPS_AirTemp_IsbL-0925_LatLon0.15_PT147H.grib2 2026-05-05 04:27 1.1M
20260505T00Z_MSC_GDPS_AirTemp_IsbL-0950_LatLon0.15_PT147H.grib2 2026-05-05 04:27 1.1M
20260505T00Z_MSC_GDPS_AirTemp_IsbL-0970_LatLon0.15_PT147H.grib2 2026-05-05 04:27 1.1M
20260505T00Z_MSC_GDPS_AirTemp_IsbL-0985_LatLon0.15_PT147H.grib2 2026-05-05 04:27 1.1M
20260505T00Z_MSC_GDPS_AirTemp_IsbL-1000_LatLon0.15_PT147H.grib2 2026-05-05 04:27 1.1M
20260505T00Z_MSC_GDPS_AirTemp_IsbL-1015_LatLon0.15_PT147H.grib2 2026-05-05 04:27 1.1M
20260505T00Z_MSC_GDPS_Albedo_Sfc_LatLon0.15_PT147H.grib2 2026-05-05 04:27 245K
20260505T00Z_MSC_GDPS_CAPE_Sfc_LatLon0.15_PT147H.grib2 2026-05-05 04:27 4.0M
20260505T00Z_MSC_GDPS_CIN_Sfc_LatLon0.15_PT147H.grib2 2026-05-05 04:27 2.8M
20260505T00Z_MSC_GDPS_ConvectivePrecip-Accum_Sfc_LatLon0.15_PT147H.grib2 2026-05-05 04:27 3.7M
20260505T00Z_MSC_GDPS_DewPointDepression_AGL-2m_LatLon0.15_PT147H.grib2 2026-05-05 04:27 759K
20260505T00Z_MSC_GDPS_DewPointDepression_IsbL-0010_LatLon0.15_PT147H.grib2 2026-05-05 04:27 88K
20260505T00Z_MSC_GDPS_DewPointDepression_IsbL-0020_LatLon0.15_PT147H.grib2 2026-05-05 04:27 84K
20260505T00Z_MSC_GDPS_DewPointDepression_IsbL-0030_LatLon0.15_PT147H.grib2 2026-05-05 04:27 102K
20260505T00Z_MSC_GDPS_DewPointDepression_IsbL-0050_LatLon0.15_PT147H.grib2 2026-05-05 04:27 382K
20260505T00Z_MSC_GDPS_DewPointDepression_IsbL-0100_LatLon0.15_PT147H.grib2 2026-05-05 04:27 395K
20260505T00Z_MSC_GDPS_DewPointDepression_IsbL-0150_LatLon0.15_PT147H.grib2 2026-05-05 04:27 501K
20260505T00Z_MSC_GDPS_DewPointDepression_IsbL-0175_LatLon0.15_PT147H.grib2 2026-05-05 04:27 593K
20260505T00Z_MSC_GDPS_DewPointDepression_IsbL-0200_LatLon0.15_PT147H.grib2 2026-05-05 04:27 687K
20260505T00Z_MSC_GDPS_DewPointDepression_IsbL-0225_LatLon0.15_PT147H.grib2 2026-05-05 04:27 773K
20260505T00Z_MSC_GDPS_DewPointDepression_IsbL-0250_LatLon0.15_PT147H.grib2 2026-05-05 04:27 866K
20260505T00Z_MSC_GDPS_DewPointDepression_IsbL-0275_LatLon0.15_PT147H.grib2 2026-05-05 04:27 887K
20260505T00Z_MSC_GDPS_DewPointDepression_IsbL-0300_LatLon0.15_PT147H.grib2 2026-05-05 04:27 932K
20260505T00Z_MSC_GDPS_DewPointDepression_IsbL-0350_LatLon0.15_PT147H.grib2 2026-05-05 04:27 955K
20260505T00Z_MSC_GDPS_DewPointDepression_IsbL-0400_LatLon0.15_PT147H.grib2 2026-05-05 04:27 1.0M
20260505T00Z_MSC_GDPS_DewPointDepression_IsbL-0450_LatLon0.15_PT147H.grib2 2026-05-05 04:27 1.0M
20260505T00Z_MSC_GDPS_DewPointDepression_IsbL-0500_LatLon0.15_PT147H.grib2 2026-05-05 04:27 1.0M
20260505T00Z_MSC_GDPS_DewPointDepression_IsbL-0550_LatLon0.15_PT147H.grib2 2026-05-05 04:27 1.0M
20260505T00Z_MSC_GDPS_DewPointDepression_IsbL-0600_LatLon0.15_PT147H.grib2 2026-05-05 04:27 1.0M
20260505T00Z_MSC_GDPS_DewPointDepression_IsbL-0650_LatLon0.15_PT147H.grib2 2026-05-05 04:27 1.1M
20260505T00Z_MSC_GDPS_DewPointDepression_IsbL-0700_LatLon0.15_PT147H.grib2 2026-05-05 04:27 1.1M
20260505T00Z_MSC_GDPS_DewPointDepression_IsbL-0750_LatLon0.15_PT147H.grib2 2026-05-05 04:27 1.1M
20260505T00Z_MSC_GDPS_DewPointDepression_IsbL-0800_LatLon0.15_PT147H.grib2 2026-05-05 04:27 1.2M
20260505T00Z_MSC_GDPS_DewPointDepression_IsbL-0850_LatLon0.15_PT147H.grib2 2026-05-05 04:27 1.1M
20260505T00Z_MSC_GDPS_DewPointDepression_IsbL-0875_LatLon0.15_PT147H.grib2 2026-05-05 04:27 1.1M
20260505T00Z_MSC_GDPS_DewPointDepression_IsbL-0900_LatLon0.15_PT147H.grib2 2026-05-05 04:27 1.0M
20260505T00Z_MSC_GDPS_DewPointDepression_IsbL-0925_LatLon0.15_PT147H.grib2 2026-05-05 04:27 1.0M
20260505T00Z_MSC_GDPS_DewPointDepression_IsbL-0950_LatLon0.15_PT147H.grib2 2026-05-05 04:27 1.0M
20260505T00Z_MSC_GDPS_DewPointDepression_IsbL-0970_LatLon0.15_PT147H.grib2 2026-05-05 04:27 1.0M
20260505T00Z_MSC_GDPS_DewPointDepression_IsbL-0985_LatLon0.15_PT147H.grib2 2026-05-05 04:27 1.0M
20260505T00Z_MSC_GDPS_DewPointDepression_IsbL-1000_LatLon0.15_PT147H.grib2 2026-05-05 04:27 958K
20260505T00Z_MSC_GDPS_DewPointDepression_IsbL-1015_LatLon0.15_PT147H.grib2 2026-05-05 04:27 900K
20260505T00Z_MSC_GDPS_DewPoint_AGL-2m_LatLon0.15_PT147H.grib2 2026-05-05 04:27 601K
20260505T00Z_MSC_GDPS_DownwardLongwaveRadiationFlux-Accum_Sfc_LatLon0.15_PT147H.grib2 2026-05-05 04:27 848K
20260505T00Z_MSC_GDPS_DownwardShortwaveRadiationFlux-Accum_Sfc_LatLon0.15_PT147H.grib2 2026-05-05 04:27 1.0M
20260505T00Z_MSC_GDPS_FreezingRain-Accum3h_Sfc_LatLon0.15_PT147H.grib2 2026-05-05 04:27 45K
20260505T00Z_MSC_GDPS_FreezingRain-Accum_Sfc_LatLon0.15_PT147H.grib2 2026-05-05 04:27 441K
20260505T00Z_MSC_GDPS_GeopotentialHeight_IsbL-0001_LatLon0.15_PT147H.grib2 2026-05-05 04:27 439K
20260505T00Z_MSC_GDPS_GeopotentialHeight_IsbL-0005_LatLon0.15_PT147H.grib2 2026-05-05 04:27 486K
20260505T00Z_MSC_GDPS_GeopotentialHeight_IsbL-0010_LatLon0.15_PT147H.grib2 2026-05-05 04:27 472K
20260505T00Z_MSC_GDPS_GeopotentialHeight_IsbL-0020_LatLon0.15_PT147H.grib2 2026-05-05 04:27 402K
20260505T00Z_MSC_GDPS_GeopotentialHeight_IsbL-0030_LatLon0.15_PT147H.grib2 2026-05-05 04:27 408K
20260505T00Z_MSC_GDPS_GeopotentialHeight_IsbL-0050_LatLon0.15_PT147H.grib2 2026-05-05 04:27 570K
20260505T00Z_MSC_GDPS_GeopotentialHeight_IsbL-0100_LatLon0.15_PT147H.grib2 2026-05-05 04:27 616K
20260505T00Z_MSC_GDPS_GeopotentialHeight_IsbL-0150_LatLon0.15_PT147H.grib2 2026-05-05 04:27 633K
20260505T00Z_MSC_GDPS_GeopotentialHeight_IsbL-0175_LatLon0.15_PT147H.grib2 2026-05-05 04:27 636K
20260505T00Z_MSC_GDPS_GeopotentialHeight_IsbL-0200_LatLon0.15_PT147H.grib2 2026-05-05 04:27 640K
20260505T00Z_MSC_GDPS_GeopotentialHeight_IsbL-0225_LatLon0.15_PT147H.grib2 2026-05-05 04:27 642K
20260505T00Z_MSC_GDPS_GeopotentialHeight_IsbL-0250_LatLon0.15_PT147H.grib2 2026-05-05 04:27 643K
20260505T00Z_MSC_GDPS_GeopotentialHeight_IsbL-0275_LatLon0.15_PT147H.grib2 2026-05-05 04:27 640K
20260505T00Z_MSC_GDPS_GeopotentialHeight_IsbL-0300_LatLon0.15_PT147H.grib2 2026-05-05 04:27 639K
20260505T00Z_MSC_GDPS_GeopotentialHeight_IsbL-0350_LatLon0.15_PT147H.grib2 2026-05-05 04:27 627K
20260505T00Z_MSC_GDPS_GeopotentialHeight_IsbL-0400_LatLon0.15_PT147H.grib2 2026-05-05 04:27 619K
20260505T00Z_MSC_GDPS_GeopotentialHeight_IsbL-0450_LatLon0.15_PT147H.grib2 2026-05-05 04:27 609K
20260505T00Z_MSC_GDPS_GeopotentialHeight_IsbL-0500_LatLon0.15_PT147H.grib2 2026-05-05 04:27 599K
20260505T00Z_MSC_GDPS_GeopotentialHeight_IsbL-0550_LatLon0.15_PT147H.grib2 2026-05-05 04:27 525K
20260505T00Z_MSC_GDPS_GeopotentialHeight_IsbL-0600_LatLon0.15_PT147H.grib2 2026-05-05 04:27 522K
20260505T00Z_MSC_GDPS_GeopotentialHeight_IsbL-0650_LatLon0.15_PT147H.grib2 2026-05-05 04:27 522K
20260505T00Z_MSC_GDPS_GeopotentialHeight_IsbL-0700_LatLon0.15_PT147H.grib2 2026-05-05 04:27 691K
20260505T00Z_MSC_GDPS_GeopotentialHeight_IsbL-0750_LatLon0.15_PT147H.grib2 2026-05-05 04:27 689K
20260505T00Z_MSC_GDPS_GeopotentialHeight_IsbL-0800_LatLon0.15_PT147H.grib2 2026-05-05 04:27 699K
20260505T00Z_MSC_GDPS_GeopotentialHeight_IsbL-0850_LatLon0.15_PT147H.grib2 2026-05-05 04:27 710K
20260505T00Z_MSC_GDPS_GeopotentialHeight_IsbL-0875_LatLon0.15_PT147H.grib2 2026-05-05 04:27 717K
20260505T00Z_MSC_GDPS_GeopotentialHeight_IsbL-0900_LatLon0.15_PT147H.grib2 2026-05-05 04:27 724K
20260505T00Z_MSC_GDPS_GeopotentialHeight_IsbL-0925_LatLon0.15_PT147H.grib2 2026-05-05 04:27 734K
20260505T00Z_MSC_GDPS_GeopotentialHeight_IsbL-0950_LatLon0.15_PT147H.grib2 2026-05-05 04:27 741K
20260505T00Z_MSC_GDPS_GeopotentialHeight_IsbL-0970_LatLon0.15_PT147H.grib2 2026-05-05 04:27 752K
20260505T00Z_MSC_GDPS_GeopotentialHeight_IsbL-0985_LatLon0.15_PT147H.grib2 2026-05-05 04:27 586K
20260505T00Z_MSC_GDPS_GeopotentialHeight_IsbL-1000_LatLon0.15_PT147H.grib2 2026-05-05 04:27 602K
20260505T00Z_MSC_GDPS_GeopotentialHeight_IsbL-1015_LatLon0.15_PT147H.grib2 2026-05-05 04:27 618K
20260505T00Z_MSC_GDPS_Humidex_Sfc_LatLon0.15_PT147H.grib2 2026-05-05 04:27 5.3M
20260505T00Z_MSC_GDPS_IcePellets-Accum3h_Sfc_LatLon0.15_PT147H.grib2 2026-05-05 04:27 35K
20260505T00Z_MSC_GDPS_IcePellets-Accum_Sfc_LatLon0.15_PT147H.grib2 2026-05-05 04:27 187K
20260505T00Z_MSC_GDPS_KIndex_Sfc_LatLon0.15_PT147H.grib2 2026-05-05 04:27 6.5M
20260505T00Z_MSC_GDPS_LatentHeatNetFlux_Sfc_LatLon0.15_PT147H.grib2 2026-05-05 04:27 687K
20260505T00Z_MSC_GDPS_LiftedIndex-MU-VT_IsbL-0500_LatLon0.15_PT147H.grib2 2026-05-05 04:27 5.4M
20260505T00Z_MSC_GDPS_NetLongwaveRadiationFlux-Accum_Sfc_LatLon0.15_PT147H.grib2 2026-05-05 04:27 1.1M
20260505T00Z_MSC_GDPS_NetShortwaveRadiationFlux-Accum_Sfc_LatLon0.15_PT147H.grib2 2026-05-05 04:27 1.0M
20260505T00Z_MSC_GDPS_O3MixingRatio_Sfc_LatLon0.15_PT147H.grib2 2026-05-05 04:47 1.9M
20260505T00Z_MSC_GDPS_O3_EAtm_LatLon0.15_PT147H.grib2 2026-05-05 04:47 2.4M
20260505T00Z_MSC_GDPS_PlanetaryBoundaryLayerHeight_Sfc_LatLon0.15_PT147H.grib2 2026-05-05 04:27 2.4M
20260505T00Z_MSC_GDPS_Precip-Accum3h_Sfc_LatLon0.15_PT147H.grib2 2026-05-05 04:27 3.5M
20260505T00Z_MSC_GDPS_Precip-Accum_Sfc_LatLon0.15_PT147H.grib2 2026-05-05 04:27 5.3M
20260505T00Z_MSC_GDPS_PrecipRate_Sfc_LatLon0.15_PT147H.grib2 2026-05-05 04:27 3.0M
20260505T00Z_MSC_GDPS_PrecipType-Instant_Sfc_LatLon0.15_PT147H.grib2 2026-05-05 04:27 1.5M
20260505T00Z_MSC_GDPS_Pressure_MSL_LatLon0.15_PT147H.grib2 2026-05-05 04:27 820K
20260505T00Z_MSC_GDPS_Pressure_PVU-1.5_LatLon0.15_PT147H.grib2 2026-05-05 04:27 5.8M
20260505T00Z_MSC_GDPS_Pressure_PVU-1_LatLon0.15_PT147H.grib2 2026-05-05 04:27 6.0M
20260505T00Z_MSC_GDPS_Pressure_PVU-2_LatLon0.15_PT147H.grib2 2026-05-05 04:27 5.6M
20260505T00Z_MSC_GDPS_Pressure_Sfc_LatLon0.15_PT147H.grib2 2026-05-05 04:27 1.1M
20260505T00Z_MSC_GDPS_RadiativeTemp_Sfc_LatLon0.15_PT147H.grib2 2026-05-05 04:27 658K
20260505T00Z_MSC_GDPS_Rain-Accum3h_Sfc_LatLon0.15_PT147H.grib2 2026-05-05 04:27 1.8M
20260505T00Z_MSC_GDPS_Rain-Accum_Sfc_LatLon0.15_PT147H.grib2 2026-05-05 04:27 4.2M
20260505T00Z_MSC_GDPS_RelativeHumidity_AGL-2m_LatLon0.15_PT147H.grib2 2026-05-05 04:27 1.0M
20260505T00Z_MSC_GDPS_RelativeHumidity_IsbL-0010_LatLon0.15_PT147H.grib2 2026-05-05 04:27 138K
20260505T00Z_MSC_GDPS_RelativeHumidity_IsbL-0020_LatLon0.15_PT147H.grib2 2026-05-05 04:27 167K
20260505T00Z_MSC_GDPS_RelativeHumidity_IsbL-0030_LatLon0.15_PT147H.grib2 2026-05-05 04:27 188K
20260505T00Z_MSC_GDPS_RelativeHumidity_IsbL-0050_LatLon0.15_PT147H.grib2 2026-05-05 04:27 336K
20260505T00Z_MSC_GDPS_RelativeHumidity_IsbL-0100_LatLon0.15_PT147H.grib2 2026-05-05 04:27 500K
20260505T00Z_MSC_GDPS_RelativeHumidity_IsbL-0150_LatLon0.15_PT147H.grib2 2026-05-05 04:27 675K
20260505T00Z_MSC_GDPS_RelativeHumidity_IsbL-0175_LatLon0.15_PT147H.grib2 2026-05-05 04:27 612K
20260505T00Z_MSC_GDPS_RelativeHumidity_IsbL-0200_LatLon0.15_PT147H.grib2 2026-05-05 04:27 713K
20260505T00Z_MSC_GDPS_RelativeHumidity_IsbL-0225_LatLon0.15_PT147H.grib2 2026-05-05 04:27 789K
20260505T00Z_MSC_GDPS_RelativeHumidity_IsbL-0250_LatLon0.15_PT147H.grib2 2026-05-05 04:27 857K
20260505T00Z_MSC_GDPS_RelativeHumidity_IsbL-0275_LatLon0.15_PT147H.grib2 2026-05-05 04:27 877K
20260505T00Z_MSC_GDPS_RelativeHumidity_IsbL-0300_LatLon0.15_PT147H.grib2 2026-05-05 04:27 921K
20260505T00Z_MSC_GDPS_RelativeHumidity_IsbL-0350_LatLon0.15_PT147H.grib2 2026-05-05 04:27 940K
20260505T00Z_MSC_GDPS_RelativeHumidity_IsbL-0400_LatLon0.15_PT147H.grib2 2026-05-05 04:27 961K
20260505T00Z_MSC_GDPS_RelativeHumidity_IsbL-0450_LatLon0.15_PT147H.grib2 2026-05-05 04:27 1.0M
20260505T00Z_MSC_GDPS_RelativeHumidity_IsbL-0500_LatLon0.15_PT147H.grib2 2026-05-05 04:27 1.0M
20260505T00Z_MSC_GDPS_RelativeHumidity_IsbL-0550_LatLon0.15_PT147H.grib2 2026-05-05 04:27 1.1M
20260505T00Z_MSC_GDPS_RelativeHumidity_IsbL-0600_LatLon0.15_PT147H.grib2 2026-05-05 04:27 1.1M
20260505T00Z_MSC_GDPS_RelativeHumidity_IsbL-0650_LatLon0.15_PT147H.grib2 2026-05-05 04:27 1.0M
20260505T00Z_MSC_GDPS_RelativeHumidity_IsbL-0700_LatLon0.15_PT147H.grib2 2026-05-05 04:27 1.1M
20260505T00Z_MSC_GDPS_RelativeHumidity_IsbL-0750_LatLon0.15_PT147H.grib2 2026-05-05 04:27 1.2M
20260505T00Z_MSC_GDPS_RelativeHumidity_IsbL-0800_LatLon0.15_PT147H.grib2 2026-05-05 04:27 1.2M
20260505T00Z_MSC_GDPS_RelativeHumidity_IsbL-0850_LatLon0.15_PT147H.grib2 2026-05-05 04:27 1.2M
20260505T00Z_MSC_GDPS_RelativeHumidity_IsbL-0875_LatLon0.15_PT147H.grib2 2026-05-05 04:27 1.2M
20260505T00Z_MSC_GDPS_RelativeHumidity_IsbL-0900_LatLon0.15_PT147H.grib2 2026-05-05 04:27 1.2M
20260505T00Z_MSC_GDPS_RelativeHumidity_IsbL-0925_LatLon0.15_PT147H.grib2 2026-05-05 04:27 1.2M
20260505T00Z_MSC_GDPS_RelativeHumidity_IsbL-0950_LatLon0.15_PT147H.grib2 2026-05-05 04:27 1.2M
20260505T00Z_MSC_GDPS_RelativeHumidity_IsbL-0970_LatLon0.15_PT147H.grib2 2026-05-05 04:27 1.2M
20260505T00Z_MSC_GDPS_RelativeHumidity_IsbL-0985_LatLon0.15_PT147H.grib2 2026-05-05 04:27 1.1M
20260505T00Z_MSC_GDPS_RelativeHumidity_IsbL-1000_LatLon0.15_PT147H.grib2 2026-05-05 04:27 1.1M
20260505T00Z_MSC_GDPS_RelativeHumidity_IsbL-1015_LatLon0.15_PT147H.grib2 2026-05-05 04:27 1.0M
20260505T00Z_MSC_GDPS_Runoff-Accum_Sfc_LatLon0.15_PT147H.grib2 2026-05-05 04:27 113K
20260505T00Z_MSC_GDPS_SensibleHeatNetFlux_Sfc_LatLon0.15_PT147H.grib2 2026-05-05 04:27 465K
20260505T00Z_MSC_GDPS_ShowalterIndex_IsbL-0500_LatLon0.15_PT147H.grib2 2026-05-05 04:27 6.2M
20260505T00Z_MSC_GDPS_Snow-Accum3h_Sfc_LatLon0.15_PT147H.grib2 2026-05-05 04:27 1.1M
20260505T00Z_MSC_GDPS_Snow-Accum_Sfc_LatLon0.15_PT147H.grib2 2026-05-05 04:27 2.2M
20260505T00Z_MSC_GDPS_SnowDepth_Sfc_LatLon0.15_PT147H.grib2 2026-05-05 04:27 1.7M
20260505T00Z_MSC_GDPS_SoilTemp_DBS-0to10cm_LatLon0.15_PT147H.grib2 2026-05-05 04:27 513K
20260505T00Z_MSC_GDPS_SoilTemp_Sfc_LatLon0.15_PT147H.grib2 2026-05-05 04:27 571K
20260505T00Z_MSC_GDPS_SoilVolumetricWaterContent_DBS-0to10cm_LatLon0.15_PT147H.grib2 2026-05-05 04:27 601K
20260505T00Z_MSC_GDPS_SoilVolumetricWaterContent_DBS-0to1cm_LatLon0.15_PT147H.grib2 2026-05-05 04:27 656K
20260505T00Z_MSC_GDPS_SpecificHumidity_AGL-120m_LatLon0.15_PT147H.grib2 2026-05-05 04:27 1.1M
20260505T00Z_MSC_GDPS_SpecificHumidity_AGL-2m_LatLon0.15_PT147H.grib2 2026-05-05 04:27 1.2M
20260505T00Z_MSC_GDPS_SpecificHumidity_AGL-40m_LatLon0.15_PT147H.grib2 2026-05-05 04:27 1.1M
20260505T00Z_MSC_GDPS_SpecificHumidity_AGL-80m_LatLon0.15_PT147H.grib2 2026-05-05 04:27 1.1M
20260505T00Z_MSC_GDPS_SpecificHumidity_IsbL-0001_LatLon0.15_PT147H.grib2 2026-05-05 04:27 1.2M
20260505T00Z_MSC_GDPS_SpecificHumidity_IsbL-0005_LatLon0.15_PT147H.grib2 2026-05-05 04:27 1.1M
20260505T00Z_MSC_GDPS_SpecificHumidity_IsbL-0010_LatLon0.15_PT147H.grib2 2026-05-05 04:27 1.2M
20260505T00Z_MSC_GDPS_SpecificHumidity_IsbL-0020_LatLon0.15_PT147H.grib2 2026-05-05 04:27 1.2M
20260505T00Z_MSC_GDPS_SpecificHumidity_IsbL-0030_LatLon0.15_PT147H.grib2 2026-05-05 04:27 1.2M
20260505T00Z_MSC_GDPS_SpecificHumidity_IsbL-0050_LatLon0.15_PT147H.grib2 2026-05-05 04:27 1.5M
20260505T00Z_MSC_GDPS_SpecificHumidity_IsbL-0100_LatLon0.15_PT147H.grib2 2026-05-05 04:27 1.2M
20260505T00Z_MSC_GDPS_SpecificHumidity_IsbL-0150_LatLon0.15_PT147H.grib2 2026-05-05 04:27 1.3M
20260505T00Z_MSC_GDPS_SpecificHumidity_IsbL-0175_LatLon0.15_PT147H.grib2 2026-05-05 04:27 1.3M
20260505T00Z_MSC_GDPS_SpecificHumidity_IsbL-0200_LatLon0.15_PT147H.grib2 2026-05-05 04:27 1.3M
20260505T00Z_MSC_GDPS_SpecificHumidity_IsbL-0225_LatLon0.15_PT147H.grib2 2026-05-05 04:27 1.3M
20260505T00Z_MSC_GDPS_SpecificHumidity_IsbL-0250_LatLon0.15_PT147H.grib2 2026-05-05 04:27 1.2M
20260505T00Z_MSC_GDPS_SpecificHumidity_IsbL-0275_LatLon0.15_PT147H.grib2 2026-05-05 04:27 1.3M
20260505T00Z_MSC_GDPS_SpecificHumidity_IsbL-0300_LatLon0.15_PT147H.grib2 2026-05-05 04:27 1.2M
20260505T00Z_MSC_GDPS_SpecificHumidity_IsbL-0350_LatLon0.15_PT147H.grib2 2026-05-05 04:27 1.2M
20260505T00Z_MSC_GDPS_SpecificHumidity_IsbL-0400_LatLon0.15_PT147H.grib2 2026-05-05 04:27 1.5M
20260505T00Z_MSC_GDPS_SpecificHumidity_IsbL-0450_LatLon0.15_PT147H.grib2 2026-05-05 04:27 1.3M
20260505T00Z_MSC_GDPS_SpecificHumidity_IsbL-0500_LatLon0.15_PT147H.grib2 2026-05-05 04:27 1.4M
20260505T00Z_MSC_GDPS_SpecificHumidity_IsbL-0550_LatLon0.15_PT147H.grib2 2026-05-05 04:27 1.6M
20260505T00Z_MSC_GDPS_SpecificHumidity_IsbL-0600_LatLon0.15_PT147H.grib2 2026-05-05 04:27 1.4M
20260505T00Z_MSC_GDPS_SpecificHumidity_IsbL-0650_LatLon0.15_PT147H.grib2 2026-05-05 04:27 1.5M
20260505T00Z_MSC_GDPS_SpecificHumidity_IsbL-0700_LatLon0.15_PT147H.grib2 2026-05-05 04:27 1.6M
20260505T00Z_MSC_GDPS_SpecificHumidity_IsbL-0750_LatLon0.15_PT147H.grib2 2026-05-05 04:27 1.7M
20260505T00Z_MSC_GDPS_SpecificHumidity_IsbL-0800_LatLon0.15_PT147H.grib2 2026-05-05 04:27 1.9M
20260505T00Z_MSC_GDPS_SpecificHumidity_IsbL-0850_LatLon0.15_PT147H.grib2 2026-05-05 04:27 1.9M
20260505T00Z_MSC_GDPS_SpecificHumidity_IsbL-0875_LatLon0.15_PT147H.grib2 2026-05-05 04:27 1.9M
20260505T00Z_MSC_GDPS_SpecificHumidity_IsbL-0900_LatLon0.15_PT147H.grib2 2026-05-05 04:27 1.9M
20260505T00Z_MSC_GDPS_SpecificHumidity_IsbL-0925_LatLon0.15_PT147H.grib2 2026-05-05 04:27 1.6M
20260505T00Z_MSC_GDPS_SpecificHumidity_IsbL-0950_LatLon0.15_PT147H.grib2 2026-05-05 04:27 1.6M
20260505T00Z_MSC_GDPS_SpecificHumidity_IsbL-0970_LatLon0.15_PT147H.grib2 2026-05-05 04:27 1.5M
20260505T00Z_MSC_GDPS_SpecificHumidity_IsbL-0985_LatLon0.15_PT147H.grib2 2026-05-05 04:27 1.5M
20260505T00Z_MSC_GDPS_SpecificHumidity_IsbL-1000_LatLon0.15_PT147H.grib2 2026-05-05 04:27 1.5M
20260505T00Z_MSC_GDPS_SpecificHumidity_IsbL-1015_LatLon0.15_PT147H.grib2 2026-05-05 04:27 1.5M
20260505T00Z_MSC_GDPS_SpecificHumidity_Sfc_LatLon0.15_PT147H.grib2 2026-05-05 04:27 671K
20260505T00Z_MSC_GDPS_Thickness_IsbL-0850to0700_LatLon0.15_PT147H.grib2 2026-05-05 04:27 470K
20260505T00Z_MSC_GDPS_Thickness_IsbL-1000to0500_LatLon0.15_PT147H.grib2 2026-05-05 04:27 378K
20260505T00Z_MSC_GDPS_Thickness_IsbL-1000to0850_LatLon0.15_PT147H.grib2 2026-05-05 04:27 489K
20260505T00Z_MSC_GDPS_TotalCloudCover_Sfc_LatLon0.15_PT147H.grib2 2026-05-05 04:27 820K
20260505T00Z_MSC_GDPS_TotalTotalsIndex_Sfc_LatLon0.15_PT147H.grib2 2026-05-05 04:27 6.2M
20260505T00Z_MSC_GDPS_UVIndex-ClearSky_Sfc_LatLon0.15_PT147H.grib2 2026-05-05 04:47 1.0M
20260505T00Z_MSC_GDPS_UVIndex_Sfc_LatLon0.15_PT147H.grib2 2026-05-05 04:47 1.5M
20260505T00Z_MSC_GDPS_UpwardLongwaveRadiationFlux_NTAtm_LatLon0.15_PT147H.grib2 2026-05-05 04:27 1.1M
20260505T00Z_MSC_GDPS_VerticalVelocity_IsbL-0500_LatLon0.15_PT147H.grib2 2026-05-05 04:27 1.0M
20260505T00Z_MSC_GDPS_VerticalVelocity_IsbL-0700_LatLon0.15_PT147H.grib2 2026-05-05 04:27 1.4M
20260505T00Z_MSC_GDPS_VerticalVelocity_IsbL-0850_LatLon0.15_PT147H.grib2 2026-05-05 04:27 1.3M
20260505T00Z_MSC_GDPS_WindChill_Sfc_LatLon0.15_PT147H.grib2 2026-05-05 04:27 5.3M
20260505T00Z_MSC_GDPS_WindDir_AGL-10m_LatLon0.15_PT147H.grib2 2026-05-05 04:27 1.3M
20260505T00Z_MSC_GDPS_WindDir_AGL-120m_LatLon0.15_PT147H.grib2 2026-05-05 04:27 1.3M
20260505T00Z_MSC_GDPS_WindDir_AGL-40m_LatLon0.15_PT147H.grib2 2026-05-05 04:27 1.4M
20260505T00Z_MSC_GDPS_WindDir_AGL-80m_LatLon0.15_PT147H.grib2 2026-05-05 04:27 1.3M
20260505T00Z_MSC_GDPS_WindDir_IsbL-0001_LatLon0.15_PT147H.grib2 2026-05-05 04:27 656K
20260505T00Z_MSC_GDPS_WindDir_IsbL-0005_LatLon0.15_PT147H.grib2 2026-05-05 04:27 800K
20260505T00Z_MSC_GDPS_WindDir_IsbL-0010_LatLon0.15_PT147H.grib2 2026-05-05 04:27 829K
20260505T00Z_MSC_GDPS_WindDir_IsbL-0020_LatLon0.15_PT147H.grib2 2026-05-05 04:27 921K
20260505T00Z_MSC_GDPS_WindDir_IsbL-0030_LatLon0.15_PT147H.grib2 2026-05-05 04:27 955K
20260505T00Z_MSC_GDPS_WindDir_IsbL-0050_LatLon0.15_PT147H.grib2 2026-05-05 04:27 939K
20260505T00Z_MSC_GDPS_WindDir_IsbL-0100_LatLon0.15_PT147H.grib2 2026-05-05 04:27 1.0M
20260505T00Z_MSC_GDPS_WindDir_IsbL-0150_LatLon0.15_PT147H.grib2 2026-05-05 04:27 1.0M
20260505T00Z_MSC_GDPS_WindDir_IsbL-0175_LatLon0.15_PT147H.grib2 2026-05-05 04:27 1.0M
20260505T00Z_MSC_GDPS_WindDir_IsbL-0200_LatLon0.15_PT147H.grib2 2026-05-05 04:27 1.1M
20260505T00Z_MSC_GDPS_WindDir_IsbL-0225_LatLon0.15_PT147H.grib2 2026-05-05 04:27 1.1M
20260505T00Z_MSC_GDPS_WindDir_IsbL-0250_LatLon0.15_PT147H.grib2 2026-05-05 04:27 1.1M
20260505T00Z_MSC_GDPS_WindDir_IsbL-0275_LatLon0.15_PT147H.grib2 2026-05-05 04:27 1.2M
20260505T00Z_MSC_GDPS_WindDir_IsbL-0300_LatLon0.15_PT147H.grib2 2026-05-05 04:27 1.2M
20260505T00Z_MSC_GDPS_WindDir_IsbL-0350_LatLon0.15_PT147H.grib2 2026-05-05 04:27 1.2M
20260505T00Z_MSC_GDPS_WindDir_IsbL-0400_LatLon0.15_PT147H.grib2 2026-05-05 04:27 1.3M
20260505T00Z_MSC_GDPS_WindDir_IsbL-0450_LatLon0.15_PT147H.grib2 2026-05-05 04:27 1.3M
20260505T00Z_MSC_GDPS_WindDir_IsbL-0500_LatLon0.15_PT147H.grib2 2026-05-05 04:27 1.4M
20260505T00Z_MSC_GDPS_WindDir_IsbL-0550_LatLon0.15_PT147H.grib2 2026-05-05 04:27 1.4M
20260505T00Z_MSC_GDPS_WindDir_IsbL-0600_LatLon0.15_PT147H.grib2 2026-05-05 04:27 1.4M
20260505T00Z_MSC_GDPS_WindDir_IsbL-0650_LatLon0.15_PT147H.grib2 2026-05-05 04:27 1.5M
20260505T00Z_MSC_GDPS_WindDir_IsbL-0700_LatLon0.15_PT147H.grib2 2026-05-05 04:27 1.6M
20260505T00Z_MSC_GDPS_WindDir_IsbL-0750_LatLon0.15_PT147H.grib2 2026-05-05 04:27 1.7M
20260505T00Z_MSC_GDPS_WindDir_IsbL-0800_LatLon0.15_PT147H.grib2 2026-05-05 04:27 1.8M
20260505T00Z_MSC_GDPS_WindDir_IsbL-0850_LatLon0.15_PT147H.grib2 2026-05-05 04:27 1.9M
20260505T00Z_MSC_GDPS_WindDir_IsbL-0875_LatLon0.15_PT147H.grib2 2026-05-05 04:27 1.9M
20260505T00Z_MSC_GDPS_WindDir_IsbL-0900_LatLon0.15_PT147H.grib2 2026-05-05 04:27 1.9M
20260505T00Z_MSC_GDPS_WindDir_IsbL-0925_LatLon0.15_PT147H.grib2 2026-05-05 04:27 1.9M
20260505T00Z_MSC_GDPS_WindDir_IsbL-0950_LatLon0.15_PT147H.grib2 2026-05-05 04:27 1.9M
20260505T00Z_MSC_GDPS_WindDir_IsbL-0970_LatLon0.15_PT147H.grib2 2026-05-05 04:27 2.0M
20260505T00Z_MSC_GDPS_WindDir_IsbL-0985_LatLon0.15_PT147H.grib2 2026-05-05 04:27 2.0M
20260505T00Z_MSC_GDPS_WindDir_IsbL-1000_LatLon0.15_PT147H.grib2 2026-05-05 04:27 2.0M
20260505T00Z_MSC_GDPS_WindDir_IsbL-1015_LatLon0.15_PT147H.grib2 2026-05-05 04:27 2.0M
20260505T00Z_MSC_GDPS_WindGust-Max_AGL-10m_LatLon0.15_PT147H.grib2 2026-05-05 04:27 2.2M
20260505T00Z_MSC_GDPS_WindGust-Min_AGL-10m_LatLon0.15_PT147H.grib2 2026-05-05 04:27 2.2M
20260505T00Z_MSC_GDPS_WindGust_AGL-10m_LatLon0.15_PT147H.grib2 2026-05-05 04:27 2.2M
20260505T00Z_MSC_GDPS_WindSpeed_AGL-10m_LatLon0.15_PT147H.grib2 2026-05-05 04:27 1.1M
20260505T00Z_MSC_GDPS_WindSpeed_AGL-120m_LatLon0.15_PT147H.grib2 2026-05-05 04:27 1.2M
20260505T00Z_MSC_GDPS_WindSpeed_AGL-40m_LatLon0.15_PT147H.grib2 2026-05-05 04:27 1.2M
20260505T00Z_MSC_GDPS_WindSpeed_AGL-80m_LatLon0.15_PT147H.grib2 2026-05-05 04:27 1.2M
20260505T00Z_MSC_GDPS_WindSpeed_IsbL-0001_LatLon0.15_PT147H.grib2 2026-05-05 04:27 653K
20260505T00Z_MSC_GDPS_WindSpeed_IsbL-0005_LatLon0.15_PT147H.grib2 2026-05-05 04:27 692K
20260505T00Z_MSC_GDPS_WindSpeed_IsbL-0010_LatLon0.15_PT147H.grib2 2026-05-05 04:27 621K
20260505T00Z_MSC_GDPS_WindSpeed_IsbL-0020_LatLon0.15_PT147H.grib2 2026-05-05 04:27 660K
20260505T00Z_MSC_GDPS_WindSpeed_IsbL-0030_LatLon0.15_PT147H.grib2 2026-05-05 04:27 670K
20260505T00Z_MSC_GDPS_WindSpeed_IsbL-0050_LatLon0.15_PT147H.grib2 2026-05-05 04:27 896K
20260505T00Z_MSC_GDPS_WindSpeed_IsbL-0100_LatLon0.15_PT147H.grib2 2026-05-05 04:27 872K
20260505T00Z_MSC_GDPS_WindSpeed_IsbL-0150_LatLon0.15_PT147H.grib2 2026-05-05 04:27 944K
20260505T00Z_MSC_GDPS_WindSpeed_IsbL-0175_LatLon0.15_PT147H.grib2 2026-05-05 04:27 1.0M
20260505T00Z_MSC_GDPS_WindSpeed_IsbL-0200_LatLon0.15_PT147H.grib2 2026-05-05 04:27 1.1M
20260505T00Z_MSC_GDPS_WindSpeed_IsbL-0225_LatLon0.15_PT147H.grib2 2026-05-05 04:27 1.1M
20260505T00Z_MSC_GDPS_WindSpeed_IsbL-0250_LatLon0.15_PT147H.grib2 2026-05-05 04:27 867K
20260505T00Z_MSC_GDPS_WindSpeed_IsbL-0275_LatLon0.15_PT147H.grib2 2026-05-05 04:27 1.1M
20260505T00Z_MSC_GDPS_WindSpeed_IsbL-0300_LatLon0.15_PT147H.grib2 2026-05-05 04:27 1.1M
20260505T00Z_MSC_GDPS_WindSpeed_IsbL-0350_LatLon0.15_PT147H.grib2 2026-05-05 04:27 1.1M
20260505T00Z_MSC_GDPS_WindSpeed_IsbL-0400_LatLon0.15_PT147H.grib2 2026-05-05 04:27 1.1M
20260505T00Z_MSC_GDPS_WindSpeed_IsbL-0450_LatLon0.15_PT147H.grib2 2026-05-05 04:27 1.1M
20260505T00Z_MSC_GDPS_WindSpeed_IsbL-0500_LatLon0.15_PT147H.grib2 2026-05-05 04:27 1.1M
20260505T00Z_MSC_GDPS_WindSpeed_IsbL-0550_LatLon0.15_PT147H.grib2 2026-05-05 04:27 1.1M
20260505T00Z_MSC_GDPS_WindSpeed_IsbL-0600_LatLon0.15_PT147H.grib2 2026-05-05 04:27 1.1M
20260505T00Z_MSC_GDPS_WindSpeed_IsbL-0650_LatLon0.15_PT147H.grib2 2026-05-05 04:27 1.2M
20260505T00Z_MSC_GDPS_WindSpeed_IsbL-0700_LatLon0.15_PT147H.grib2 2026-05-05 04:27 1.5M
20260505T00Z_MSC_GDPS_WindSpeed_IsbL-0750_LatLon0.15_PT147H.grib2 2026-05-05 04:27 1.6M
20260505T00Z_MSC_GDPS_WindSpeed_IsbL-0800_LatLon0.15_PT147H.grib2 2026-05-05 04:27 1.6M
20260505T00Z_MSC_GDPS_WindSpeed_IsbL-0850_LatLon0.15_PT147H.grib2 2026-05-05 04:27 1.7M
20260505T00Z_MSC_GDPS_WindSpeed_IsbL-0875_LatLon0.15_PT147H.grib2 2026-05-05 04:27 1.8M
20260505T00Z_MSC_GDPS_WindSpeed_IsbL-0900_LatLon0.15_PT147H.grib2 2026-05-05 04:27 1.9M
20260505T00Z_MSC_GDPS_WindSpeed_IsbL-0925_LatLon0.15_PT147H.grib2 2026-05-05 04:27 1.9M
20260505T00Z_MSC_GDPS_WindSpeed_IsbL-0950_LatLon0.15_PT147H.grib2 2026-05-05 04:27 1.9M
20260505T00Z_MSC_GDPS_WindSpeed_IsbL-0970_LatLon0.15_PT147H.grib2 2026-05-05 04:27 1.9M
20260505T00Z_MSC_GDPS_WindSpeed_IsbL-0985_LatLon0.15_PT147H.grib2 2026-05-05 04:27 1.8M
20260505T00Z_MSC_GDPS_WindSpeed_IsbL-1000_LatLon0.15_PT147H.grib2 2026-05-05 04:27 1.8M
20260505T00Z_MSC_GDPS_WindSpeed_IsbL-1015_LatLon0.15_PT147H.grib2 2026-05-05 04:27 1.8M
20260505T00Z_MSC_GDPS_WindU_AGL-10m_LatLon0.15_PT147H.grib2 2026-05-05 04:27 1.5M
20260505T00Z_MSC_GDPS_WindU_AGL-120m_LatLon0.15_PT147H.grib2 2026-05-05 04:27 963K
20260505T00Z_MSC_GDPS_WindU_AGL-40m_LatLon0.15_PT147H.grib2 2026-05-05 04:27 957K
20260505T00Z_MSC_GDPS_WindU_AGL-80m_LatLon0.15_PT147H.grib2 2026-05-05 04:27 962K
20260505T00Z_MSC_GDPS_WindU_IsbL-0001_LatLon0.15_PT147H.grib2 2026-05-05 04:27 510K
20260505T00Z_MSC_GDPS_WindU_IsbL-0005_LatLon0.15_PT147H.grib2 2026-05-05 04:27 691K
20260505T00Z_MSC_GDPS_WindU_IsbL-0010_LatLon0.15_PT147H.grib2 2026-05-05 04:27 698K
20260505T00Z_MSC_GDPS_WindU_IsbL-0020_LatLon0.15_PT147H.grib2 2026-05-05 04:27 726K
20260505T00Z_MSC_GDPS_WindU_IsbL-0030_LatLon0.15_PT147H.grib2 2026-05-05 04:27 738K
20260505T00Z_MSC_GDPS_WindU_IsbL-0050_LatLon0.15_PT147H.grib2 2026-05-05 04:27 762K
20260505T00Z_MSC_GDPS_WindU_IsbL-0100_LatLon0.15_PT147H.grib2 2026-05-05 04:27 870K
20260505T00Z_MSC_GDPS_WindU_IsbL-0150_LatLon0.15_PT147H.grib2 2026-05-05 04:27 1.0M
20260505T00Z_MSC_GDPS_WindU_IsbL-0175_LatLon0.15_PT147H.grib2 2026-05-05 04:27 1.0M
20260505T00Z_MSC_GDPS_WindU_IsbL-0200_LatLon0.15_PT147H.grib2 2026-05-05 04:27 842K
20260505T00Z_MSC_GDPS_WindU_IsbL-0225_LatLon0.15_PT147H.grib2 2026-05-05 04:27 854K
20260505T00Z_MSC_GDPS_WindU_IsbL-0250_LatLon0.15_PT147H.grib2 2026-05-05 04:27 853K
20260505T00Z_MSC_GDPS_WindU_IsbL-0275_LatLon0.15_PT147H.grib2 2026-05-05 04:27 879K
20260505T00Z_MSC_GDPS_WindU_IsbL-0300_LatLon0.15_PT147H.grib2 2026-05-05 04:27 871K
20260505T00Z_MSC_GDPS_WindU_IsbL-0350_LatLon0.15_PT147H.grib2 2026-05-05 04:27 888K
20260505T00Z_MSC_GDPS_WindU_IsbL-0400_LatLon0.15_PT147H.grib2 2026-05-05 04:27 1.1M
20260505T00Z_MSC_GDPS_WindU_IsbL-0450_LatLon0.15_PT147H.grib2 2026-05-05 04:27 1.1M
20260505T00Z_MSC_GDPS_WindU_IsbL-0500_LatLon0.15_PT147H.grib2 2026-05-05 04:27 1.1M
20260505T00Z_MSC_GDPS_WindU_IsbL-0550_LatLon0.15_PT147H.grib2 2026-05-05 04:27 1.1M
20260505T00Z_MSC_GDPS_WindU_IsbL-0600_LatLon0.15_PT147H.grib2 2026-05-05 04:27 1.1M
20260505T00Z_MSC_GDPS_WindU_IsbL-0650_LatLon0.15_PT147H.grib2 2026-05-05 04:27 1.2M
20260505T00Z_MSC_GDPS_WindU_IsbL-0700_LatLon0.15_PT147H.grib2 2026-05-05 04:27 1.2M
20260505T00Z_MSC_GDPS_WindU_IsbL-0750_LatLon0.15_PT147H.grib2 2026-05-05 04:27 1.3M
20260505T00Z_MSC_GDPS_WindU_IsbL-0800_LatLon0.15_PT147H.grib2 2026-05-05 04:27 1.3M
20260505T00Z_MSC_GDPS_WindU_IsbL-0850_LatLon0.15_PT147H.grib2 2026-05-05 04:27 1.4M
20260505T00Z_MSC_GDPS_WindU_IsbL-0875_LatLon0.15_PT147H.grib2 2026-05-05 04:27 1.4M
20260505T00Z_MSC_GDPS_WindU_IsbL-0900_LatLon0.15_PT147H.grib2 2026-05-05 04:27 1.4M
20260505T00Z_MSC_GDPS_WindU_IsbL-0925_LatLon0.15_PT147H.grib2 2026-05-05 04:27 1.4M
20260505T00Z_MSC_GDPS_WindU_IsbL-0950_LatLon0.15_PT147H.grib2 2026-05-05 04:27 1.4M
20260505T00Z_MSC_GDPS_WindU_IsbL-0970_LatLon0.15_PT147H.grib2 2026-05-05 04:27 1.4M
20260505T00Z_MSC_GDPS_WindU_IsbL-0985_LatLon0.15_PT147H.grib2 2026-05-05 04:27 1.4M
20260505T00Z_MSC_GDPS_WindU_IsbL-1000_LatLon0.15_PT147H.grib2 2026-05-05 04:27 1.4M
20260505T00Z_MSC_GDPS_WindU_IsbL-1015_LatLon0.15_PT147H.grib2 2026-05-05 04:27 1.6M
20260505T00Z_MSC_GDPS_WindV_AGL-10m_LatLon0.15_PT147H.grib2 2026-05-05 04:27 1.5M
20260505T00Z_MSC_GDPS_WindV_AGL-120m_LatLon0.15_PT147H.grib2 2026-05-05 04:27 964K
20260505T00Z_MSC_GDPS_WindV_AGL-40m_LatLon0.15_PT147H.grib2 2026-05-05 04:27 957K
20260505T00Z_MSC_GDPS_WindV_AGL-80m_LatLon0.15_PT147H.grib2 2026-05-05 04:27 964K
20260505T00Z_MSC_GDPS_WindV_IsbL-0001_LatLon0.15_PT147H.grib2 2026-05-05 04:27 788K
20260505T00Z_MSC_GDPS_WindV_IsbL-0005_LatLon0.15_PT147H.grib2 2026-05-05 04:27 857K
20260505T00Z_MSC_GDPS_WindV_IsbL-0010_LatLon0.15_PT147H.grib2 2026-05-05 04:27 881K
20260505T00Z_MSC_GDPS_WindV_IsbL-0020_LatLon0.15_PT147H.grib2 2026-05-05 04:27 927K
20260505T00Z_MSC_GDPS_WindV_IsbL-0030_LatLon0.15_PT147H.grib2 2026-05-05 04:27 937K
20260505T00Z_MSC_GDPS_WindV_IsbL-0050_LatLon0.15_PT147H.grib2 2026-05-05 04:27 898K
20260505T00Z_MSC_GDPS_WindV_IsbL-0100_LatLon0.15_PT147H.grib2 2026-05-05 04:27 860K
20260505T00Z_MSC_GDPS_WindV_IsbL-0150_LatLon0.15_PT147H.grib2 2026-05-05 04:27 1.0M
20260505T00Z_MSC_GDPS_WindV_IsbL-0175_LatLon0.15_PT147H.grib2 2026-05-05 04:27 813K
20260505T00Z_MSC_GDPS_WindV_IsbL-0200_LatLon0.15_PT147H.grib2 2026-05-05 04:27 841K
20260505T00Z_MSC_GDPS_WindV_IsbL-0225_LatLon0.15_PT147H.grib2 2026-05-05 04:27 850K
20260505T00Z_MSC_GDPS_WindV_IsbL-0250_LatLon0.15_PT147H.grib2 2026-05-05 04:27 908K
20260505T00Z_MSC_GDPS_WindV_IsbL-0275_LatLon0.15_PT147H.grib2 2026-05-05 04:27 932K
20260505T00Z_MSC_GDPS_WindV_IsbL-0300_LatLon0.15_PT147H.grib2 2026-05-05 04:27 865K
20260505T00Z_MSC_GDPS_WindV_IsbL-0350_LatLon0.15_PT147H.grib2 2026-05-05 04:27 879K
20260505T00Z_MSC_GDPS_WindV_IsbL-0400_LatLon0.15_PT147H.grib2 2026-05-05 04:27 879K
20260505T00Z_MSC_GDPS_WindV_IsbL-0450_LatLon0.15_PT147H.grib2 2026-05-05 04:27 881K
20260505T00Z_MSC_GDPS_WindV_IsbL-0500_LatLon0.15_PT147H.grib2 2026-05-05 04:27 886K
20260505T00Z_MSC_GDPS_WindV_IsbL-0550_LatLon0.15_PT147H.grib2 2026-05-05 04:27 1.1M
20260505T00Z_MSC_GDPS_WindV_IsbL-0600_LatLon0.15_PT147H.grib2 2026-05-05 04:27 1.1M
20260505T00Z_MSC_GDPS_WindV_IsbL-0650_LatLon0.15_PT147H.grib2 2026-05-05 04:27 1.2M
20260505T00Z_MSC_GDPS_WindV_IsbL-0700_LatLon0.15_PT147H.grib2 2026-05-05 04:27 1.2M
20260505T00Z_MSC_GDPS_WindV_IsbL-0750_LatLon0.15_PT147H.grib2 2026-05-05 04:27 1.2M
20260505T00Z_MSC_GDPS_WindV_IsbL-0800_LatLon0.15_PT147H.grib2 2026-05-05 04:27 1.3M
20260505T00Z_MSC_GDPS_WindV_IsbL-0850_LatLon0.15_PT147H.grib2 2026-05-05 04:27 1.4M
20260505T00Z_MSC_GDPS_WindV_IsbL-0875_LatLon0.15_PT147H.grib2 2026-05-05 04:27 1.4M
20260505T00Z_MSC_GDPS_WindV_IsbL-0900_LatLon0.15_PT147H.grib2 2026-05-05 04:27 1.4M
20260505T00Z_MSC_GDPS_WindV_IsbL-0925_LatLon0.15_PT147H.grib2 2026-05-05 04:27 1.4M
20260505T00Z_MSC_GDPS_WindV_IsbL-0950_LatLon0.15_PT147H.grib2 2026-05-05 04:27 1.4M
20260505T00Z_MSC_GDPS_WindV_IsbL-0970_LatLon0.15_PT147H.grib2 2026-05-05 04:27 1.4M
20260505T00Z_MSC_GDPS_WindV_IsbL-0985_LatLon0.15_PT147H.grib2 2026-05-05 04:27 1.4M
20260505T00Z_MSC_GDPS_WindV_IsbL-1000_LatLon0.15_PT147H.grib2 2026-05-05 04:27 1.4M
20260505T00Z_MSC_GDPS_WindV_IsbL-1015_LatLon0.15_PT147H.grib2 2026-05-05 04:27 1.6M